Simultaneous Nadir Overpasses (SNOs) Predictions

Prediction of SNOs between AQUA and METOP-A Satellite Orbit:

Table of predicted SNOs for the next 14.0 days since TLE Epoch: 4/27/2012
Index Date (AQUA) Time (AQUA) AQUA Lat,Lon Date (METOP-A) Time (METOP-A) METOP-A Lat,Lon Distance(km) Time Diff (sec)
1 04/28/2012 19:20:07 73.80,-115.69 04/28/2012 19:19:16 73.80,-115.63 1.63 51
2 04/28/2012 20:09:34 -73.87, 51.80 04/28/2012 20:09:56 -73.87, 51.86 1.82 22
3 05/01/2012 14:54:20 73.82, -49.28 05/01/2012 14:53:39 73.80, -49.24 2.50 41
4 05/01/2012 15:43:47 -73.88, 118.22 05/01/2012 15:44:19 -73.87, 118.26 1.96 32
5 05/04/2012 10:28:33 73.80, 17.22 05/04/2012 10:28:03 73.79, 17.14 2.56 30
6 05/04/2012 11:18:00 -73.86,-175.28 05/04/2012 11:18:43 -73.87,-175.35 2.48 43
7 05/07/2012 05:13:07 -73.17, -82.65 05/07/2012 05:12:01 -73.08, -85.39 89.17 66
8 05/07/2012 06:02:47 73.84, 83.57 05/07/2012 06:02:26 73.83, 83.64 2.38 21
9 05/07/2012 06:52:14 -73.90,-108.92 05/07/2012 06:53:06 -73.91,-108.84 2.77 52
10 05/10/2012 00:47:28 -73.59, -17.07 05/10/2012 00:46:16 -73.53, -18.00 30.15 72
11 05/10/2012 01:36:59 73.85, 150.01 05/10/2012 01:36:49 73.82, 150.01 2.88 10
12 05/10/2012 02:26:26 -73.90, -42.47 05/10/2012 02:27:29 -73.91, -42.45 0.84 63




NCC Satellite Simultaneous Nadir Overpasses (SNOs) Prediction Service
